Flag for U.S.A. Weather past 2 weeks in Shiprock, New Mexico, U.S.A.

Now
47 °F

Clear.


Feels Like: 46 °F
Forecast: 28 / 54 °F
Wind: 3 mph from Northeast

Location: Four Corners Regional Airport

Current Time: Jan 26, 2015 at 7:10:41 PM

Latest Report: Jan 26, 2015 at 5:53 PM


Visibility: 10 mi

Pressure: 30.32 "Hg

Humidity: 41%

Dew point: 24 °F

Location of ShiprockLocation

Historic Weather in Shiprock — Graph

°F

Shiprock temperature yesterday

Maximum temperature yesterday: 48 °F (at 2:53 PM)
Minimum temperature yesterday: 20 °F (at 2:53 AM)
Average temperature yesterday: 32 °F

Past Weeks' High & Low Weather Summary

 TemperatureHumidityPressure
High57 °F (Jan 26, 1:53 PM)100% (Jan 16, 8:53 PM)30.52 "Hg (Jan 16, 8:53 PM)
Low15 °F (Jan 23, 6:53 AM)28% (Jan 26, 1:53 PM)29.96 "Hg (Jan 21, 4:53 PM)
Average33 °F74%30.30 "Hg
* Reported Jan 11 5:53 PM — Jan 26 5:53 PM, Shiprock, Weather by CustomWeather, © 2014

Note: Actual official high and low records may vary slightly from our data, if they occured in-between our weather recording intervals... More about our weather records

Advertising

Shiprock weather history for previous 24 hours

 ConditionsComfort  
Time TempWeatherWind HumidityBarometerVisibility
5:53 PM
Jan 26
47 °FClear.3 mph41%30.32 "Hg10 mi
4:53 PM52 °FSunny.5 mph35%30.29 "Hg10 mi
3:53 PM56 °FSunny.7 mph30%30.27 "Hg10 mi
2:53 PM57 °FSunny.6 mph31%30.27 "Hg10 mi
1:53 PM57 °FSunny.N/A28%30.27 "Hg10 mi
12:53 PM54 °FSunny.5 mph30%30.29 "Hg10 mi
11:53 AM48 °FSunny.3 mph39%30.35 "Hg10 mi
10:53 AM43 °FSunny.6 mph47%30.40 "Hg10 mi
9:53 AM36 °FSunny.5 mph59%30.43 "Hg10 mi
8:53 AM31 °FSunny.5 mph69%30.46 "Hg10 mi
7:53 AM27 °FSunny.9 mph78%30.47 "Hg10 mi
6:53 AM26 °FClear.9 mph77%30.44 "Hg10 mi
5:53 AM26 °FClear.8 mph77%30.42 "Hg10 mi
4:53 AM26 °FClear.10 mph77%30.40 "Hg10 mi
3:53 AM25 °FClear.7 mph81%30.41 "Hg10 mi
2:53 AM27 °FClear.13 mph75%30.39 "Hg10 mi
1:53 AM28 °FClear.10 mph75%30.39 "Hg10 mi
12:53 AM28 °FClear.8 mph72%30.39 "Hg10 mi
11:53 PM
Jan 25
29 °FClear.8 mph69%30.39 "Hg10 mi
10:53 PM31 °FClear.9 mph67%30.38 "Hg10 mi
9:53 PM29 °FClear.6 mph69%30.38 "Hg10 mi
8:53 PM31 °FClear.3 mph64%30.38 "Hg10 mi
7:53 PM33 °FClear.No wind58%30.38 "Hg10 mi
Weather by CustomWeather, © 2014

See weather overviewHow to use our weather pages